Weather History for KFRM - September, 2013

Change the Weather History Date:

Saturday, September 28, 2013

  Actual Average Record
Temperature  
Mean Temperature 58 °F -  
Max Temperature 71 °F 66 °F 85 °F (1956)
Min Temperature 44 °F 44 °F 30 °F (1967)
Degree Days  
Heating Degree Days 8    
Growing Degree Days 8 (Base 50)    
Moisture  
Dew Point 49 °F    
Average Humidity 68    
Maximum Humidity 88    
Minimum Humidity 42    
Precipitation  
Precipitation 0.03 in - - ()
Sea Level Pressure  
Sea Level Pressure 29.83 in    
Wind  
Wind Speed 15 mph (SW)    
Max Wind Speed 21 mph    
Max Gust Speed 28 mph    
Visibility 10 miles    
Events      
Averages and records for this station are not official NWS values.
T = Trace of Precipitation, MM = Missing Value Source: NWS Daily Summary

Daily Weather History Graph

Daily Weather History Graph

Search for Another Location

Airport or City:

Trip Planner

Search our weather history database for the weather conditions in past years. The results will help you decide how hot, cold, wet, or windy it might be!

Date:

Astronomy

Sep. 28, 2013 Rise Set
Actual Time 7:12 AM CDT 7:03 PM CDT
Civil Twilight 6:43 AM CDT 7:32 PM CDT
Nautical Twilight 6:10 AM CDT 8:05 PM CDT
Astronomical Twilight 5:36 AM CDT 8:39 PM CDT
Moon 12:50 AM CDT (9/28) 3:31 PM CDT (9/28)
Length of Visible Light 12h 48m
Length of Day
11h 51m
Waning Crescent, 36% of the Moon is Illuminated
Sep 28
Waning Crescent
Oct 4
New
Oct 11
First Quarter
Oct 18
Full
Oct 26
Last Quarter

Hourly Weather History & Observations

Time (CDT) Temp. Windchill Dew Point Humidity Pressure Visibility Wind Dir Wind Speed Gust Speed Precip Events Conditions
12:15 AM 71.6 °F - 57.2 °F 60% 29.80 in 10.0 mi SSE 18.4 mph 23.0 mph N/A   Clear
12:35 AM 69.8 °F - 57.2 °F 64% 29.79 in 10.0 mi SSE 16.1 mph - N/A   Clear
12:55 AM 69.8 °F - 57.2 °F 64% 29.78 in 10.0 mi SSE 16.1 mph - N/A   Clear
1:15 AM 69.8 °F - 57.2 °F 64% 29.78 in 10.0 mi SSE 17.3 mph - N/A   Clear
1:35 AM 69.8 °F - 57.2 °F 64% 29.78 in 10.0 mi SSE 13.8 mph 19.6 mph N/A   Clear
1:55 AM 69.8 °F - 57.2 °F 64% 29.77 in 10.0 mi SE 16.1 mph - N/A   Clear
2:15 AM 68.0 °F - 57.2 °F 68% 29.76 in 10.0 mi SE 19.6 mph - N/A   Clear
2:35 AM 68.0 °F - 57.2 °F 68% 29.75 in 10.0 mi SSE 17.3 mph - N/A   Clear
2:55 AM 68.0 °F - 57.2 °F 68% 29.75 in 10.0 mi SSE 18.4 mph 24.2 mph N/A   Clear
3:15 AM 68.0 °F - 57.2 °F 68% 29.73 in 10.0 mi SSE 20.7 mph 25.3 mph N/A   Clear
3:35 AM 68.0 °F - 57.2 °F 68% 29.73 in 10.0 mi SSE 19.6 mph 24.2 mph N/A   Clear
3:55 AM 68.0 °F - 57.2 °F 68% 29.73 in 10.0 mi SSE 18.4 mph 23.0 mph N/A   Clear
4:15 AM 68.0 °F - 57.2 °F 68% 29.72 in 10.0 mi SSE 20.7 mph 25.3 mph N/A   Clear
4:35 AM 68.0 °F - 57.2 °F 68% 29.71 in 10.0 mi SSE 19.6 mph 24.2 mph N/A   Clear
4:55 AM 68.0 °F - 57.2 °F 68% 29.71 in 10.0 mi SSE 19.6 mph 24.2 mph N/A   Mostly Cloudy
5:15 AM 68.0 °F - 57.2 °F 68% 29.70 in 10.0 mi SSE 19.6 mph 25.3 mph N/A   Mostly Cloudy
5:35 AM 68.0 °F - 57.2 °F 68% 29.69 in 10.0 mi SSE 19.6 mph 24.2 mph N/A   Mostly Cloudy
5:55 AM 68.0 °F - 57.2 °F 68% 29.71 in 10.0 mi South 15.0 mph 23.0 mph N/A   Overcast
6:15 AM 66.2 °F - 57.2 °F 73% 29.70 in 10.0 mi SSE 19.6 mph 24.2 mph N/A   Mostly Cloudy
6:35 AM 66.2 °F - 59.0 °F 78% 29.70 in 10.0 mi SSE 19.6 mph 25.3 mph N/A   Mostly Cloudy
6:55 AM 66.2 °F - 59.0 °F 78% 29.71 in 10.0 mi SSE 18.4 mph - N/A   Overcast
7:15 AM 66.2 °F - 60.8 °F 83% 29.71 in 10.0 mi SSE 16.1 mph 23.0 mph N/A   Overcast
7:35 AM 64.4 °F - 60.8 °F 88% 29.70 in 10.0 mi South 15.0 mph - N/A   Overcast
7:55 AM 66.2 °F - 60.8 °F 83% 29.70 in 10.0 mi South 15.0 mph 20.7 mph N/A   Overcast
8:15 AM 66.2 °F - 60.8 °F 83% 29.69 in 10.0 mi South 12.7 mph - N/A   Overcast
8:35 AM 64.4 °F - 60.8 °F 88% 29.67 in 10.0 mi SSE 10.4 mph - 0.01 in   Overcast
8:55 AM 66.2 °F - 60.8 °F 83% 29.68 in 10.0 mi South 15.0 mph 20.7 mph 0.01 in   Overcast
9:15 AM 66.2 °F - 60.8 °F 83% 29.70 in 10.0 mi South 12.7 mph 18.4 mph N/A   Overcast
9:35 AM 66.2 °F - 60.8 °F 83% 29.72 in 10.0 mi West 20.7 mph 27.6 mph N/A   Overcast
9:55 AM 57.2 °F - 51.8 °F 82% 29.74 in 10.0 mi West 20.7 mph 24.2 mph N/A   Overcast
10:15 AM 55.4 °F - 51.8 °F 88% 29.76 in 5.0 mi West 15.0 mph 21.9 mph N/A   Overcast
10:35 AM 55.4 °F - 51.8 °F 88% 29.78 in 2.0 mi West 16.1 mph 20.7 mph 0.01 in   Overcast
10:55 AM 55.4 °F - 51.8 °F 88% 29.80 in 4.0 mi West 19.6 mph 27.6 mph 0.02 in   Overcast
11:15 AM 55.4 °F - 50.0 °F 82% 29.81 in 10.0 mi West 17.3 mph 26.5 mph N/A   Overcast
11:35 AM 55.4 °F - 50.0 °F 82% 29.81 in 10.0 mi WNW 13.8 mph - N/A   Overcast
11:55 AM 55.4 °F - 50.0 °F 82% 29.81 in 10.0 mi West 12.7 mph - N/A   Overcast
12:15 PM 55.4 °F - 50.0 °F 82% 29.82 in 10.0 mi WNW 12.7 mph 19.6 mph N/A   Overcast
12:35 PM 57.2 °F - 50.0 °F 77% 29.83 in 10.0 mi WNW 13.8 mph - N/A   Overcast
12:55 PM 57.2 °F - 48.2 °F 72% 29.83 in 10.0 mi WNW 16.1 mph 24.2 mph N/A   Overcast
1:15 PM 57.2 °F - 48.2 °F 72% 29.85 in 10.0 mi West 12.7 mph 17.3 mph N/A   Overcast
1:35 PM 60.8 °F - 48.2 °F 63% 29.85 in 10.0 mi West 16.1 mph 25.3 mph N/A   Overcast
1:55 PM 60.8 °F - 46.4 °F 59% 29.85 in 10.0 mi WNW 12.7 mph - N/A   Overcast
2:15 PM 60.8 °F - 46.4 °F 59% 29.86 in 10.0 mi West 18.4 mph 24.2 mph N/A   Overcast
2:35 PM 60.8 °F - 46.4 °F 59% 29.87 in 10.0 mi West 18.4 mph 24.2 mph N/A   Overcast
2:55 PM 60.8 °F - 44.6 °F 55% 29.88 in 10.0 mi West 16.1 mph - N/A   Overcast
3:15 PM 60.8 °F - 44.6 °F 55% 29.88 in 10.0 mi West 17.3 mph 24.2 mph N/A   Scattered Clouds
3:35 PM 62.6 °F - 42.8 °F 48% 29.89 in 10.0 mi West 19.6 mph 25.3 mph N/A   Mostly Cloudy
3:55 PM 62.6 °F - 42.8 °F 48% 29.89 in 10.0 mi West 18.4 mph 25.3 mph N/A   Scattered Clouds
4:15 PM 64.4 °F - 42.8 °F 45% 29.89 in 10.0 mi West 12.7 mph 24.2 mph N/A   Overcast
4:35 PM 62.6 °F - 41.0 °F 45% 29.90 in 10.0 mi WNW 18.4 mph - N/A   Mostly Cloudy
4:55 PM 62.6 °F - 39.2 °F 42% 29.91 in 10.0 mi WNW 18.4 mph 23.0 mph N/A   Partly Cloudy
5:15 PM 62.6 °F - 39.2 °F 42% 29.91 in 10.0 mi WNW 12.7 mph - N/A   Partly Cloudy
5:35 PM 62.6 °F - 39.2 °F 42% 29.92 in 10.0 mi WNW 12.7 mph 17.3 mph N/A   Clear
5:55 PM 62.6 °F - 39.2 °F 42% 29.92 in 10.0 mi West 9.2 mph - N/A   Clear
6:15 PM 62.6 °F - 39.2 °F 42% 29.93 in 10.0 mi WNW 10.4 mph - N/A   Clear
6:35 PM 60.8 °F - 39.2 °F 45% 29.93 in 10.0 mi WNW 6.9 mph - N/A   Clear
6:55 PM 60.8 °F - 39.2 °F 45% 29.94 in 10.0 mi WNW 8.1 mph - N/A   Clear
7:15 PM 57.2 °F - 37.4 °F 48% 29.95 in 10.0 mi WNW 6.9 mph - N/A   Clear
7:35 PM 53.6 °F - 39.2 °F 58% 29.96 in 10.0 mi WNW 5.8 mph - N/A   Clear
7:55 PM 51.8 °F - 39.2 °F 62% 29.97 in 10.0 mi West 5.8 mph - N/A   Clear
8:15 PM 50.0 °F - 39.2 °F 66% 29.97 in 10.0 mi West 5.8 mph - N/A   Clear
8:35 PM 48.2 °F - 39.2 °F 71% 29.98 in 10.0 mi WSW 4.6 mph - N/A   Clear
8:55 PM 48.2 °F - 39.2 °F 71% 29.98 in 10.0 mi Calm Calm - N/A   Clear
9:15 PM 48.2 °F - 39.2 °F 71% 29.99 in 10.0 mi SSW 3.5 mph - N/A   Clear
9:35 PM 46.4 °F - 37.4 °F 71% 29.99 in 10.0 mi Calm Calm - N/A   Clear
9:55 PM 46.4 °F 45.2 °F 39.2 °F 76% 29.99 in 10.0 mi SSW 3.5 mph - N/A   Clear
10:15 PM 44.6 °F - 37.4 °F 76% 29.99 in 10.0 mi Calm Calm - N/A   Clear
10:35 PM 44.6 °F 43.1 °F 37.4 °F 76% 29.99 in 10.0 mi SSW 3.5 mph - N/A   Clear
10:55 PM 46.4 °F 42.9 °F 39.2 °F 76% 29.99 in 10.0 mi SSW 6.9 mph - N/A   Clear
11:15 PM 44.6 °F 42.2 °F 37.4 °F 76% 29.99 in 10.0 mi SSW 4.6 mph - N/A   Clear
11:35 PM 44.6 °F 42.2 °F 39.2 °F 81% 29.99 in 10.0 mi SSW 4.6 mph - N/A   Clear
11:55 PM 46.4 °F 42.9 °F 39.2 °F 76% 29.99 in 10.0 mi SSW 6.9 mph - N/A   Clear